CW9386 Weather Reports


Display with metric or nautical units.
time (UTC)temp
F
wind
direction
speed
MPH
gust
MPH
rain 1hr
in
rain 24hr
in
rain mn
in
humidity
%
barometer
mb
20260504043657 65 115 1.0 3.0 0.00 0.00 0.00 49 1014.7
20260504042651 65 133 2.0 4.0 0.00 0.00 0.00 49 1014.7
20260504041649 65 121 1.0 2.0 0.00 0.00 0.00 50 1014.7
20260504035700 65 121 1.0 4.0 0.00 0.00 0.00 50 1014.7
20260504033658 67 130 2.0 4.0 0.00 0.00 0.00 47 1014.7
20260504031654 68 153 0.0 2.0 0.00 0.00 0.00 44 1014.6
20260504025701 70 136 0.0 1.0 0.00 0.00 0.00 43 1014.5
20260504024656 70 107 0.0 1.0 0.00 0.00 0.00 44 1014.6
20260504022651 72 116 0.0 1.0 0.00 0.00 0.00 41 1014.5
20260504021646 73 211 0.0 1.0 0.00 0.00 0.00 39 1014.4
20260504015701 74 217 0.0 2.0 0.00 0.00 0.00 39 1014.3
20260504014651 74 203 0.0 1.0 0.00 0.00 0.00 39 1014.1
20260504013644 75 203 0.0 1.0 0.00 0.00 0.00 37 1014.2
20260504012656 75 203 0.0 3.0 0.00 0.00 0.00 36 1014.2
20260504011652 75 186 0.0 3.0 0.00 0.00 0.00 36 1014.2
20260504010650 75 198 1.0 4.0 0.00 0.00 0.00 35 1014.2
20260504004643 75 190 2.0 6.0 0.00 0.00 0.00 35 1014.5
20260504003655 75 174 4.0 8.0 0.00 0.00 0.00 34 1014.6
20260504002654 75 168 4.0 9.0 0.00 0.00 0.00 34 1014.7
20260504001644 75 192 4.0 9.0 0.00 0.00 0.00 34 1014.8
20260504000659 75 173 6.0 10.0 0.00 0.00 0.00 34 1014.9
20260503235655 75 167 5.0 10.0 0.00 0.00 0.00 33 1014.9
20260503234643 75 157 5.0 10.0 0.00 0.00 0.00 33 1015.2
20260503233656 75 165 7.0 11.0 0.00 0.00 0.00 33 1015.1
20260503232652 75 175 5.0 12.0 0.00 0.00 0.00 33 1015.1
20260503231640 75 196 7.0 11.0 0.00 0.00 0.00 34 1015.3
20260503230658 75 204 7.0 11.0 0.00 0.00 0.00 34 1015.5
20260503225653 75 194 3.0 11.0 0.00 0.00 0.00 34 1015.4
20260503224648 74 134 4.0 12.0 0.00 0.00 0.00 34 1015.8
20260503223639 75 161 3.0 11.0 0.00 0.00 0.00 35 1016.0
20260503222655 75 190 4.0 14.0 0.00 0.00 0.00 34 1016.1
20260503220639 75 236 5.0 9.0 0.00 0.00 0.00 34 1016.6
20260503215655 75 210 2.0 5.0 0.00 0.00 0.00 35 1016.7
20260503214646 75 164 2.0 12.0 0.00 0.00 0.00 34 1016.9
20260503211656 75 172 6.0 12.0 0.00 0.00 0.00 34 1017.8
20260503210654 75 167 5.0 13.0 0.00 0.00 0.00 35 1018.1
20260503205645 75 161 4.0 14.0 0.00 0.00 0.00 34 1018.2
20260503204641 74 186 7.0 11.0 0.00 0.00 0.00 34 1017.8
20260503203655 74 171 5.0 12.0 0.00 0.00 0.00 35 1018.0
20260503202645 73 181 4.0 14.0 0.00 0.00 0.00 34 1018.4
20260503201644 73 159 8.0 12.0 0.00 0.00 0.00 35 1018.6
20260503200642 73 167 9.0 14.0 0.00 0.00 0.00 34 1018.6
20260503195653 73 154 6.0 12.0 0.00 0.00 0.00 33 1018.7
20260503194651 74 186 7.0 14.0 0.00 0.00 0.00 33 1018.9
20260503193643 73 226 5.0 14.0 0.00 0.00 0.00 34 1018.9
20260503192637 73 190 5.0 11.0 0.00 0.00 0.00 35 1019.0
20260503191649 72 229 6.0 11.0 0.00 0.00 0.00 35 1019.1
20260503190639 72 234 4.0 9.0 0.00 0.00 0.00 36 1019.3
20260503185651 72 27 0.0 4.0 0.00 0.00 0.00 38 1019.4
20260503184647 72 283 1.0 4.0 0.00 0.00 0.00 37 1019.5
20260503183645 72 217 3.0 5.0 0.00 0.00 0.00 39 1019.5
20260503182642 71 151 0.0 2.0 0.00 0.00 0.00 40 1019.7
20260503181634 70 102 2.0 6.0 0.00 0.00 0.00 40 1020.1
20260503180648 70 253 3.0 8.0 0.00 0.00 0.00 41 1020.3
20260503175644 70 182 3.0 5.0 0.00 0.00 0.00 42 1020.4
20260503174639 69 311 2.0 7.0 0.00 0.00 0.00 43 1020.4
20260503173653 69 281 3.0 6.0 0.00 0.00 0.00 43 1020.7
20260503172650 69 236 3.0 5.0 0.00 0.00 0.00 44 1020.7
20260503171644 69 312 1.0 4.0 0.00 0.00 0.00 43 1021.0
20260503170634 68 9 3.0 4.0 0.00 0.00 0.00 45 1021.1
20260503150639 57 340 2.0 3.0 0.00 0.00 0.00 73 1021.7
20260503110625 51 78 0.0 0.0 0.00 0.00 0.00 82 1020.8
20260503081622 54 82 1.0 2.0 0.00 0.05 0.00 75 1021.6
20260503080638 54 83 1.0 3.0 0.00 0.05 0.00 74 1021.6
20260503071640 56 105 1.0 3.0 0.00 0.05 0.00 66 1022.3
20260503054634 56 86 1.0 3.0 0.00 0.05 0.05 67 1021.6
20260503053646 57 329 0.0 2.0 0.00 0.05 0.05 70 1021.6
20260503051636 57 29 2.0 4.0 0.00 0.05 0.05 69 1021.7
20260503050641 57 41 2.0 4.0 0.00 0.05 0.05 69 1021.7
20260503045650 58 14 2.0 5.0 0.00 0.05 0.05 68 1021.8
20260503044648 58 43 2.0 8.0 0.00 0.05 0.05 67 1021.6